Home > Weather > Unalaska > Past weeks

Flag for USA Weather for the Past 2 Weeks in Unalaska, Alaska, USA

Now
41 °F

Partly sunny.


Feels Like: 34 °F
Forecast: 38 / 42 °F
Wind: 12 mph from Northwest

Location: Dutch Harbor

Current Time: May 1, 2016 at 2:05:51 PM

Latest Report: May 1, 2016 at 12:55 PM


Visibility: 10 mi

Pressure: 29.92 "Hg

Humidity: 60%

Dew Point: 28 °F

Location of UnalaskaLocation

Historic Weather in Unalaska — Graph

°F

Unalaska Temperature Yesterday

Maximum temperature yesterday: 43 °F (at 5:59 PM)
Minimum temperature yesterday: 40 °F (at 9:59 AM)
Average temperature yesterday: 41 °F

High & Low Weather Summary for the Past Weeks

 TemperatureHumidityPressure
High48 °F (Apr 26, 3:56 PM)96% (Apr 20, 8:56 AM)30.08 "Hg (Apr 20, 8:56 AM)
Low35 °F (Apr 19, 4:56 AM)57% (Apr 23, 10:59 AM)29.06 "Hg (Apr 24, 7:56 PM)
Average41 °F77%29.38 "Hg
* Reported Apr 16 11:58 AM — May 1 11:56 AM, Unalaska, Weather by CustomWeather, © 2016

Note: Actual official high and low records may vary slightly from our data, if they occured in-between our weather recording intervals... More about our weather records

Advertising

Unalaska Weather History for the Previous 24 Hours

Scroll right to see more
 ConditionsComfort  
Time TempWeatherWind HumidityBarometerVisibility
11:56 AM
Sun, May 1
40 °FOvercast.6 mph63%29.92 "Hg10 mi
10:56 AM40 °FOvercast.7 mph60%29.92 "Hg10 mi
9:59 AM39 °FMostly cloudy.9 mph65%29.92 "Hg10 mi
8:56 AM39 °FBroken clouds.8 mph62%29.91 "Hg10 mi
7:59 AM39 °FPassing clouds.12 mph65%29.90 "Hg10 mi
6:56 AM39 °FMostly cloudy.16 mph67%29.91 "Hg10 mi
5:59 AM39 °FMostly cloudy.16 mph65%29.91 "HgN/A
5:28 AM37 °FMostly cloudy.12 mph75%29.90 "HgN/A
12:56 AM39 °FOvercast.9 mph76%29.88 "Hg10 mi
11:56 PM
Sat, Apr 30
40 °FOvercast.8 mph77%29.87 "Hg10 mi
10:56 PM40 °FOvercast.8 mph73%29.86 "Hg10 mi
9:56 PM40 °FMostly cloudy.12 mph80%29.85 "Hg10 mi
8:56 PM41 °FLight rain. Overcast.13 mph80%29.84 "Hg10 mi
6:56 PM42 °FMore clouds than sun.9 mph73%29.83 "Hg10 mi
5:59 PM43 °FCloudy.17 mph76%29.81 "HgN/A
4:56 PM42 °FCloudy.16 mph76%29.80 "Hg10 mi
3:59 PM42 °FCloudy.18 mph79%29.78 "HgN/A
2:56 PM42 °FCloudy.14 mph79%29.78 "Hg10 mi
Weather by CustomWeather, © 2016

See weather overviewHow to use our weather pages